This is the latest recevied weather packets stored in our database for station/object KI8L. If no packets are shown the sender has not sent any weather packets the latest 10 day(s).
| Time | Temp. | Humidity | Pressure | Rain* | Wind** | Luminosity | Snow |
|---|---|---|---|---|---|---|---|
| 1777213713 | 8.89° C | 96% | 1022.1 hPa | 0 mm | - | 85 W/m² | - |
| 1777213410 | 8.89° C | 95% | 1022.1 hPa | 0 mm | - | 84 W/m² | - |
| 1777213107 | 8.89° C | 96% | 1022.1 hPa | 0 mm | - | 70 W/m² | - |
| 1777212804 | 8.89° C | 96% | 1021.9 hPa | 0 mm | - | 77 W/m² | - |
| 1777212501 | 9.44° C | 95% | 1022.1 hPa | 0 mm | - | 77 W/m² | - |
| 1777212195 | 9.44° C | 95% | 1021.8 hPa | 0 mm | - | 77 W/m² | - |
| 1777211890 | 9.44° C | 95% | 1021.7 hPa | 0 mm | - | 81 W/m² | - |
| 1777211588 | 9.44° C | 96% | 1021.6 hPa | 0 mm | - | 88 W/m² | - |
| 1777211285 | 8.89° C | 96% | 1021.7 hPa | 0 mm | - | 85 W/m² | - |
| 1777210981 | 8.89° C | 95% | 1021.9 hPa | 0 mm | - | 92 W/m² | - |
| 1777210675 | 8.89° C | 96% | 1021.8 hPa | 0 mm | - | 105 W/m² | - |
| 1777210371 | 8.89° C | 95% | 1021.6 hPa | 0 mm | - | 99 W/m² | - |
| 1777210069 | 8.89° C | 95% | 1021.7 hPa | 0 mm | - | 102 W/m² | - |
| 1777209764 | 8.89° C | 95% | 1021.6 hPa | 0 mm | - | 101 W/m² | - |
| 1777209460 | 8.89° C | 96% | 1021.7 hPa | 0 mm | - | 90 W/m² | - |
| 1777209156 | 8.33° C | 96% | 1021.6 hPa | 0 mm | - | 84 W/m² | - |
| 1777208852 | 8.33° C | 96% | 1021.6 hPa | 0 mm | - | 80 W/m² | - |
| 1777208550 | 8.33° C | 96% | 1021.6 hPa | 0 mm | - | 75 W/m² | - |
| 1777208246 | 8.33° C | 96% | 1021.8 hPa | 0 mm | - | 71 W/m² | - |
| 1777207941 | 8.33° C | 97% | 1021.8 hPa | 0 mm | - | 67 W/m² | - |
| 1777207636 | 7.78° C | 97% | 1021.8 hPa | 0 mm | - | 66 W/m² | - |
| 1777207332 | 7.78° C | 96% | 1021.8 hPa | 0 mm | - | 61 W/m² | - |
| 1777207032 | 7.78° C | 96% | 1021.8 hPa | 0 mm | - | 60 W/m² | - |
| 1777206729 | 7.78° C | 97% | 1021.9 hPa | 0 mm | - | 55 W/m² | - |
| 1777206423 | 7.78° C | 96% | 1021.9 hPa | 0 mm | - | 52 W/m² | - |
* Rain latest hour (hover to see other rain measurements)
** Current wind speed in m/s (hover to see current wind gust speed)